Time,TemperatureF,DewpointF,PressureIn,WindDirection,WindDirectionDegrees,WindSpeedMPH,WindSpeedGustMPH,Humidity,HourlyPrecipIn,Conditions,Clouds,dailyrainin,SolarRadiationWatts/m^2,SoftwareType,DateUTC
2013-04-07 00:02:00,65.0,28.0,-100.00,NW,309,16.0,24.0,25,0.00,,,0.00,0.000000,,2013-04-07 07:02:00,
2013-04-07 00:12:00,65.0,28.0,-100.00,NW,309,16.0,24.0,25,0.00,,,0.00,0.000000,,2013-04-07 07:12:00,
2013-04-07 00:22:00,65.0,28.0,-100.00,NW,309,16.0,24.0,25,0.00,,,0.00,0.000000,,2013-04-07 07:22:00,
2013-04-07 00:52:00,63.0,26.0,-100.00,NW,307,18.0,25.0,24,0.00,,,0.00,0.000000,,2013-04-07 07:52:00,
2013-04-07 01:02:00,63.0,26.0,-100.00,NW,307,18.0,25.0,24,0.00,,,0.00,0.000000,,2013-04-07 08:02:00,
2013-04-07 01:12:00,63.0,26.0,-100.00,NW,307,18.0,25.0,24,0.00,,,0.00,0.000000,,2013-04-07 08:12:00,
2013-04-07 01:22:00,63.0,26.0,-100.00,NW,307,18.0,25.0,24,0.00,,,0.00,0.000000,,2013-04-07 08:22:00,
2013-04-07 01:53:00,62.0,26.0,-100.00,WNW,302,17.0,34.0,25,0.00,,,0.00,0.000000,,2013-04-07 08:53:00,
2013-04-07 02:02:00,62.0,26.0,-100.00,WNW,302,17.0,34.0,25,0.00,,,0.00,0.000000,,2013-04-07 09:02:00,
2013-04-07 02:12:00,62.0,26.0,-100.00,WNW,302,17.0,34.0,25,0.00,,,0.00,0.000000,,2013-04-07 09:12:00,
2013-04-07 02:22:00,62.0,26.0,-100.00,WNW,302,17.0,34.0,25,0.00,,,0.00,0.000000,,2013-04-07 09:22:00,
2013-04-07 02:53:00,63.0,28.0,-100.00,WNW,289,12.0,32.0,26,0.00,,,0.00,0.000000,,2013-04-07 09:53:00,
2013-04-07 03:03:00,63.0,28.0,-100.00,WNW,289,12.0,32.0,26,0.00,,,0.00,0.000000,,2013-04-07 10:03:00,
2013-04-07 03:13:00,63.0,28.0,-100.00,WNW,289,12.0,32.0,26,0.00,,,0.00,0.000000,,2013-04-07 10:13:00,
2013-04-07 03:22:00,63.0,28.0,-100.00,WNW,289,12.0,32.0,26,0.00,,,0.00,0.000000,,2013-04-07 10:22:00,
2013-04-07 03:53:00,60.0,25.0,-100.00,WNW,282,10.0,23.0,26,0.00,,,0.00,0.000000,,2013-04-07 10:53:00,
2013-04-07 04:02:00,60.0,25.0,-100.00,WNW,282,10.0,23.0,26,0.00,,,0.00,0.000000,,2013-04-07 11:02:00,
2013-04-07 04:12:00,60.0,25.0,-100.00,WNW,282,10.0,23.0,26,0.00,,,0.00,0.000000,,2013-04-07 11:12:00,
2013-04-07 04:22:00,60.0,25.0,-100.00,WNW,282,10.0,23.0,26,0.00,,,0.00,0.000000,,2013-04-07 11:22:00,
2013-04-07 04:53:00,61.0,24.0,-100.00,West,260,7.0,29.0,24,0.00,,,0.00,0.000000,,2013-04-07 11:53:00,
2013-04-07 05:02:00,61.0,24.0,-100.00,West,260,7.0,29.0,24,0.00,,,0.00,0.000000,,2013-04-07 12:02:00,
2013-04-07 05:12:00,61.0,24.0,-100.00,West,260,7.0,29.0,24,0.00,,,0.00,0.000000,,2013-04-07 12:12:00,
2013-04-07 05:21:00,61.0,24.0,-100.00,West,260,7.0,29.0,24,0.00,,,0.00,0.000000,,2013-04-07 12:21:00,
2013-04-07 05:53:00,58.0,24.0,-100.00,SSE,149,0.0,8.0,27,0.00,,,0.00,0.000000,,2013-04-07 12:53:00,
2013-04-07 06:03:00,58.0,24.0,-100.00,SSE,149,0.0,8.0,27,0.00,,,0.00,0.000000,,2013-04-07 13:03:00,
2013-04-07 06:12:00,58.0,24.0,-100.00,SSE,149,0.0,8.0,27,0.00,,,0.00,0.000000,,2013-04-07 13:12:00,
2013-04-07 06:22:00,58.0,24.0,-100.00,SSE,149,0.0,8.0,27,0.00,,,0.00,0.000000,,2013-04-07 13:22:00,
2013-04-07 06:53:00,57.0,24.0,-100.00,WSW,257,0.0,4.0,28,0.00,,,0.00,0.000000,,2013-04-07 13:53:00,
2013-04-07 07:02:00,57.0,24.0,-100.00,WSW,257,0.0,4.0,28,0.00,,,0.00,0.000000,,2013-04-07 14:02:00,
2013-04-07 07:12:00,57.0,24.0,-100.00,WSW,257,0.0,4.0,28,0.00,,,0.00,0.000000,,2013-04-07 14:12:00,
2013-04-07 07:22:00,57.0,24.0,-100.00,WSW,257,0.0,4.0,28,0.00,,,0.00,0.000000,,2013-04-07 14:22:00,
2013-04-07 07:53:00,60.0,23.0,-100.00,WNW,284,3.0,6.0,24,0.00,,,-99.99,40.000000,,2013-04-07 14:53:00,
2013-04-07 08:02:00,60.0,23.0,-100.00,WNW,284,3.0,6.0,24,0.00,,,-99.99,40.000000,,2013-04-07 15:02:00,
2013-04-07 08:12:00,60.0,23.0,-100.00,WNW,284,3.0,6.0,24,0.00,,,-99.99,40.000000,,2013-04-07 15:12:00,
2013-04-07 08:22:00,60.0,23.0,-100.00,WNW,284,3.0,6.0,24,0.00,,,-99.99,40.000000,,2013-04-07 15:22:00,
2013-04-07 08:54:00,60.0,22.0,-100.00,NW,307,1.0,7.0,23,0.00,,,0.00,135.000000,,2013-04-07 15:54:00,
2013-04-07 09:03:00,60.0,22.0,-100.00,NW,307,1.0,7.0,23,0.00,,,0.00,135.000000,,2013-04-07 16:03:00,
2013-04-07 09:13:00,60.0,22.0,-100.00,NW,307,1.0,7.0,23,0.00,,,0.00,135.000000,,2013-04-07 16:13:00,
2013-04-07 09:23:00,60.0,22.0,-100.00,NW,307,1.0,7.0,23,0.00,,,0.00,135.000000,,2013-04-07 16:23:00,
2013-04-07 09:54:00,63.0,27.0,-100.00,ESE,117,0.0,5.0,25,0.00,,,0.00,277.000000,,2013-04-07 16:54:00,
2013-04-07 10:03:00,63.0,27.0,-100.00,ESE,117,0.0,5.0,25,0.00,,,0.00,277.000000,,2013-04-07 17:03:00,
2013-04-07 10:12:00,63.0,27.0,-100.00,ESE,117,0.0,5.0,25,0.00,,,0.00,277.000000,,2013-04-07 17:12:00,
2013-04-07 10:22:00,63.0,27.0,-100.00,ESE,117,0.0,5.0,25,0.00,,,0.00,277.000000,,2013-04-07 17:22:00,
2013-04-07 10:53:00,63.0,26.0,-100.00,SE,139,2.0,6.0,24,0.00,,,0.00,435.000000,,2013-04-07 17:53:00,
2013-04-07 11:02:00,63.0,26.0,-100.00,SE,139,2.0,6.0,24,0.00,,,0.00,435.000000,,2013-04-07 18:02:00,
2013-04-07 11:12:00,63.0,26.0,-100.00,SE,139,2.0,6.0,24,0.00,,,0.00,435.000000,,2013-04-07 18:12:00,
2013-04-07 11:22:00,63.0,26.0,-100.00,SE,139,2.0,6.0,24,0.00,,,0.00,435.000000,,2013-04-07 18:22:00,
2013-04-07 11:52:00,69.0,27.0,-100.00,SSE,149,4.0,9.0,21,0.00,,,0.00,739.000000,,2013-04-07 18:52:00,
2013-04-07 12:02:00,69.0,27.0,-100.00,SSE,149,4.0,9.0,21,0.00,,,0.00,739.000000,,2013-04-07 19:02:00,
2013-04-07 12:12:00,69.0,27.0,-100.00,SSE,149,4.0,9.0,21,0.00,,,0.00,739.000000,,2013-04-07 19:12:00,
2013-04-07 12:22:00,69.0,27.0,-100.00,SSE,149,4.0,9.0,21,0.00,,,0.00,739.000000,,2013-04-07 19:22:00,
2013-04-07 13:02:00,69.0,22.0,-100.00,SE,144,6.0,11.0,17,0.00,,,0.00,994.000000,,2013-04-07 20:02:00,
2013-04-07 13:12:00,69.0,22.0,-100.00,SE,144,6.0,11.0,17,0.00,,,0.00,994.000000,,2013-04-07 20:12:00,
2013-04-07 13:22:00,69.0,22.0,-100.00,SE,144,6.0,11.0,17,0.00,,,0.00,994.000000,,2013-04-07 20:22:00,
2013-04-07 13:53:00,73.0,23.0,-100.00,SE,126,8.0,13.0,15,0.00,,,0.00,1232.000000,,2013-04-07 20:53:00,
2013-04-07 14:02:00,73.0,23.0,-100.00,SE,126,8.0,13.0,15,0.00,,,0.00,1232.000000,,2013-04-07 21:02:00,
2013-04-07 14:12:00,73.0,23.0,-100.00,SE,126,8.0,13.0,15,0.00,,,0.00,1232.000000,,2013-04-07 21:12:00,
2013-04-07 14:21:00,73.0,23.0,-100.00,SE,126,8.0,13.0,15,0.00,,,0.00,1232.000000,,2013-04-07 21:21:00,
2013-04-07 14:55:00,76.0,29.0,-100.00,WSW,254,8.0,21.0,18,0.00,,,0.00,1192.000000,,2013-04-07 21:55:00,
2013-04-07 15:03:00,76.0,29.0,-100.00,WSW,254,8.0,21.0,18,0.00,,,0.00,1192.000000,,2013-04-07 22:03:00,
2013-04-07 15:13:00,76.0,29.0,-100.00,WSW,254,8.0,21.0,18,0.00,,,0.00,1192.000000,,2013-04-07 22:13:00,
2013-04-07 15:23:00,76.0,29.0,-100.00,WSW,254,8.0,21.0,18,0.00,,,0.00,1192.000000,,2013-04-07 22:23:00,
2013-04-07 15:53:00,77.0,27.0,-100.00,ENE,73,3.0,20.0,16,0.00,,,0.00,1060.000000,,2013-04-07 22:53:00,
2013-04-07 16:03:00,77.0,27.0,-100.00,ENE,73,3.0,20.0,16,0.00,,,0.00,1060.000000,,2013-04-07 23:03:00,
2013-04-07 16:12:00,77.0,27.0,-100.00,ENE,73,3.0,20.0,16,0.00,,,0.00,1060.000000,,2013-04-07 23:12:00,
2013-04-07 16:22:00,77.0,27.0,-100.00,ENE,73,3.0,20.0,16,0.00,,,0.00,1060.000000,,2013-04-07 23:22:00,
2013-04-07 16:52:00,69.0,32.0,-100.00,West,267,15.0,28.0,25,0.00,,,0.00,826.000000,,2013-04-07 23:52:00,
2013-04-07 17:02:00,69.0,32.0,-100.00,West,267,15.0,28.0,25,0.00,,,0.00,826.000000,,2013-04-08 00:02:00,
2013-04-07 17:12:00,69.0,32.0,-100.00,West,267,15.0,28.0,25,0.00,,,0.00,826.000000,,2013-04-08 00:12:00,
2013-04-07 17:22:00,69.0,32.0,-100.00,West,267,15.0,28.0,25,0.00,,,0.00,826.000000,,2013-04-08 00:22:00,
2013-04-07 17:53:00,64.0,33.0,-100.00,West,267,21.0,46.0,31,0.00,,,0.00,575.000000,,2013-04-08 00:53:00,
2013-04-07 18:02:00,64.0,33.0,-100.00,West,267,21.0,46.0,31,0.00,,,0.00,575.000000,,2013-04-08 01:02:00,
2013-04-07 18:12:00,64.0,33.0,-100.00,West,267,21.0,46.0,31,0.00,,,0.00,575.000000,,2013-04-08 01:12:00,
2013-04-07 18:22:00,64.0,33.0,-100.00,West,267,21.0,46.0,31,0.00,,,0.00,575.000000,,2013-04-08 01:22:00,
2013-04-07 18:55:00,62.0,31.0,-100.00,WSW,248,17.0,38.0,31,0.00,,,0.00,212.000000,,2013-04-08 01:55:00,
2013-04-07 19:02:00,62.0,31.0,-100.00,WSW,248,17.0,38.0,31,0.00,,,0.00,212.000000,,2013-04-08 02:02:00,
2013-04-07 19:12:00,62.0,31.0,-100.00,WSW,248,17.0,38.0,31,0.00,,,0.00,212.000000,,2013-04-08 02:12:00,
2013-04-07 19:22:00,62.0,31.0,-100.00,WSW,248,17.0,38.0,31,0.00,,,0.00,212.000000,,2013-04-08 02:22:00,
2013-04-07 19:54:00,61.0,31.0,-100.00,WSW,244,21.0,39.0,32,0.00,,,0.00,37.000000,,2013-04-08 02:54:00,
2013-04-07 20:05:00,61.0,31.0,-100.00,WSW,244,21.0,39.0,32,0.00,,,0.00,37.000000,,2013-04-08 03:05:00,
2013-04-07 20:14:00,61.0,31.0,-100.00,WSW,244,21.0,39.0,32,0.00,,,0.00,37.000000,,2013-04-08 03:14:00,
2013-04-07 20:23:00,61.0,31.0,-100.00,WSW,244,21.0,39.0,32,0.00,,,0.00,37.000000,,2013-04-08 03:23:00,
2013-04-07 20:55:00,59.0,31.0,-100.00,West,274,12.0,29.0,34,0.00,,,0.00,0.000000,,2013-04-08 03:55:00,
2013-04-07 21:02:00,59.0,31.0,-100.00,West,274,12.0,29.0,34,0.00,,,0.00,0.000000,,2013-04-08 04:02:00,
2013-04-07 21:12:00,59.0,31.0,-100.00,West,274,12.0,29.0,34,0.00,,,0.00,0.000000,,2013-04-08 04:12:00,
2013-04-07 21:23:00,59.0,31.0,-100.00,West,274,12.0,29.0,34,0.00,,,0.00,0.000000,,2013-04-08 04:23:00,
2013-04-07 21:53:00,57.0,29.0,-100.00,West,264,17.0,30.0,34,0.00,,,0.00,0.000000,,2013-04-08 04:53:00,
2013-04-07 22:02:00,57.0,29.0,-100.00,West,264,17.0,30.0,34,0.00,,,0.00,0.000000,,2013-04-08 05:02:00,
2013-04-07 22:12:00,57.0,29.0,-100.00,West,264,17.0,30.0,34,0.00,,,0.00,0.000000,,2013-04-08 05:12:00,
2013-04-07 22:22:00,57.0,29.0,-100.00,West,264,17.0,30.0,34,0.00,,,0.00,0.000000,,2013-04-08 05:22:00,
2013-04-07 22:52:00,56.0,26.0,-100.00,SSW,198,7.0,21.0,31,0.00,,,0.00,0.000000,,2013-04-08 05:52:00,
2013-04-07 23:02:00,56.0,26.0,-100.00,SSW,198,7.0,21.0,31,0.00,,,0.00,0.000000,,2013-04-08 06:02:00,
2013-04-07 23:12:00,56.0,26.0,-100.00,SSW,198,7.0,21.0,31,0.00,,,0.00,0.000000,,2013-04-08 06:12:00,
2013-04-07 23:21:00,56.0,26.0,-100.00,SSW,198,7.0,21.0,31,0.00,,,0.00,0.000000,,2013-04-08 06:21:00,
2013-04-07 23:52:00,56.0,27.0,-100.00,WNW,295,24.0,45.0,32,0.00,,,0.00,0.000000,,2013-04-08 06:52:00,